Gulfport Biloxi International Airport Gulfport US
ICAO: KGPT
IATA: GPT
Category: Large
Scheduled Services: Yes

Elevation: 28 ft
TransAlt. 18000 ft.

Airport Communications:
APP/DEP:124.6
ATIS:119.45
CTAF:123.7
GND:120.4
ANG OPS:37.78
GREENWOOD RDO:109
TWR:123.7
UNICOM:122.95

KGPT Zoom In..

If you have problems with the map follow the link
https://www.worldairports.se/pages/airport.php?
ICAO=KGPT

Runways:

(A) RW 14 length 9002 ft width 150 ft
ILS 110.90 / hdg 133

(B) RW 18 length 4935 ft width 150 ft
---- / hdg 178

(C) RW 32 length 9002 ft width 150 ft
ILS 108.30 / hdg 313

(D) RW 36 length 4935 ft width 150 ft
---- / hdg 358

Location; KGPT
Day. 17 / Time. 02.53 Zulu
* Altimeter: 30.21
* Temperature: 07° c. 44.6°f.
* Wind from: 000° Speed 00 kn.
Dewpoint: 06° c.
Visibility: 10 Statute Miles.
Clouds: Clear (automated report).

KGPT 170253Z 00000KT 10SM CLR 07/06 A3021 RMK AO2 SLP229 T00720056 51009 $


Wind - Calm.

 
 
jpsmedia.com for Web Design worldairports.se 2018   terms of use